STARLINK-35805

Last updated on Sun Dec 07 2025 00:02:05 GMT+0000 (Coordinated Universal Time)

1 66359U 25254M 25340.58335648 -.00132690 00000+0 -24139-2 0 9996 2 66359 53.1602 305.9951 0001568 94.0983 337.2908 15.49360089 5904
UTC large
Height (km)
Speed (km/s)
/
Latitude / Longitude
Inclination (degrees)
Orbital Period (minutes)
Azimuth
Elevation
Range (km)
Doppler Factor

Next 0 passes for location: London (51.5072 / 0.1276)

Sorry there are no passes over London.